Погода в Красноселье

Украина / Кировоградская область     48°53′39″N   32°26′44″E
темп.,
°C
ветер,
м/с
пор.,
м/с
влажн.,
%
обл.,
%
осадки,
мм/ч
давл.,
гПа
погр.,
м
13 июня, вс
вс1300:00+16ююз22825 0.1 101016
03:00+15юз35895 0.2 100986
06:00+15юз358967 0.0 1009100
09:00+21ююз57686 0.0 1008457
12:00+23ююз79565 0.2 10071579
15:00+21ююз6116799 0.6 1007763
18:00+19ю488399 2.0 1007368
21:00+16зсз3695100 5.3 1008165
14 июня, пн
пн1400:00+14ссз489596 1.4 1009314
03:00+14с479692 1.6 1009325
06:00+14с359857 0.4 1009211
09:00+18вюв368497 0.4 1010549
12:00+22юв576589 1.0 10101516
15:00+22ююв456748 4.5 10111162
18:00+22св346972 1.4 10111030
21:00+18всв368377 2.8 101380
15 июня, вт
вт1500:00+17всв22845 0.1 101314
03:00+16св11904 0.1 101311
06:00+16св24941 0.4 101498
09:00+21св45802 1.4 1014300
12:00+23ссв45650 2.0 10131125
15:00+24ссв56634 2.6 10121457
18:00+23с46721 0.6 10111122
21:00+18ссв49906 1.8 1011199
16 июня, ср
ср1600:00+17с4119587 0.4 1011303
03:00+16с5129671 1.3 1011349
06:00+16с51294100 0.1 1011470
09:00+19с698197 0.1 1012612
12:00+22с787289 0.1 10121148
15:00+21с6980100 1.6 10121045
18:00+19ссв51084100 1.9 1013422
21:00+18с41190100 3.6 1013294
17 июня, чт
чт1700:00+17ссз379697 1.9 1014172
03:00+17с6129577 2.2 1014444
06:00+16с7129590 0.6 1014583
09:00+17ссв61094100 0.7 1015878
12:00+18св61094100 0.8 1015847
15:00+21св788099 4.8 10161052
18:00+20ссв568526 1.8 1016712
21:00+18св51193100 2.1 1018308